User: anonymous   Login
Location: Unspecified
(0.0000°N, 0.0000°E)
Time: 22:43:48
(UTC+02:00)
Language:

CZ-4B R/B - Orbit

View from above orbital plane
View from above orbital plane
View from above satellite
View from above satellite

Ground track
Ground track

The orbit data is extracted from the following two-line orbital elements,

1 33410U 08053C   17294.92142005 +.00000475 +00000-0 +39093-4 0  9997
2 33410 097.7446 264.4976 0121192 125.7859 235.4702 14.98424406489546
Epoch (UTC): 21 October 2017 22:06:50
Eccentricity: 0.0121192
inclination: 97.7446°
perigee height: 487 km
apogee height: 656 km
right ascension of ascending node: 264.4976°
argument of perigee: 125.7859°
revolutions per day: 14.98424406
mean anomaly at epoch: 235.4702°
orbit number at epoch: 48954

The dashed part of the orbit path shows where the satellite is in the earth's shadow,  

DLR